Weather History for Bluefield, WV

Change the Weather History Date:

Monday, November 25, 2013

  Actual Average Record
Temperature  
Mean Temperature 29 °F 44 °F  
Max Temperature 42 °F 52 °F 69 °F (2006)
Min Temperature 15 °F 35 °F 7 °F (1970)
Degree Days  
Heating Degree Days 36 21  
Month to date heating degree days 482 427  
Since 1 July heating degree days 790 791  
Cooling Degree Days 0 0  
Month to date cooling degree days 0 0  
Year to date cooling degree days 938 851  
Moisture  
Dew Point 9 °F    
Average Humidity 49    
Maximum Humidity 73    
Minimum Humidity 24    
Precipitation  
Precipitation T in 0.09 in 1.29 in (1964)
Month to date precipitation 1.18 2.21  
Year to date precipitation 35.02 36.24  
Snow  
Snow T in - - ()
Month to date snowfall 0.2  
Since 1 July snowfall 0.4  
Since 1 September snowfall 0.4  
Snow Depth 0.00 in    
Sea Level Pressure  
Sea Level Pressure 30.39 in    
Wind  
Wind Speed 2 mph (SSE)    
Max Wind Speed 8 mph    
Max Gust Speed 12 mph    
Visibility 10 miles    
Events Snow    
T = Trace of Precipitation, MM = Missing Value Source: NWS Daily Summary

Daily Weather History Graph

Daily Weather History Graph

Search for Another Location

Airport:

Trip Planner

Search our weather history database for the weather conditions in past years. The results will help you decide how hot, cold, wet, or windy it might be!

Date:

Astronomy

Nov. 25, 2013 Rise Set
Actual Time 7:14 AM EST 5:09 PM EST
Civil Twilight 6:46 AM EST 5:37 PM EST
Nautical Twilight 6:14 AM EST 6:09 PM EST
Astronomical Twilight 5:42 AM EST 6:40 PM EST
Moon No Moon Rise 12:35 PM EST (11/25)
Length of Visible Light 10h 51m
Length of Day
9h 54m
Waning Gibbous, 51% of the Moon is Illuminated
Nov 25
Waning Gibbous
Nov 25
Last Quarter
Dec 2
New
Dec 9
First Quarter
Dec 17
Full

Hourly Weather History & Observations

Time (EST) Temp. Windchill Dew Point Humidity Pressure Visibility Wind Dir Wind Speed Gust Speed Precip Events Conditions
12:52 AM 17.1 °F 11.7 °F 3.9 °F 56% 30.51 in 10.0 mi West 3.5 mph - N/A   Clear
1:52 AM 16.0 °F - 5.0 °F 62% 30.49 in 10.0 mi Calm Calm - N/A   Clear
2:52 AM 15.1 °F 9.4 °F 6.1 °F 68% 30.48 in 10.0 mi ESE 3.5 mph - N/A   Clear
3:52 AM 17.1 °F 10.0 °F 3.9 °F 56% 30.46 in 10.0 mi East 4.6 mph - N/A   Clear
4:52 AM 15.1 °F - 8.1 °F 74% 30.45 in 10.0 mi Calm Calm - N/A   Clear
5:52 AM 16.0 °F - 6.1 °F 65% 30.44 in 10.0 mi Calm Calm - N/A   Clear
6:52 AM 18.0 °F - 8.1 °F 65% 30.45 in 10.0 mi Calm Calm - N/A   Clear
7:52 AM 19.0 °F - 8.1 °F 62% 30.45 in 10.0 mi Calm Calm - N/A   Clear
8:52 AM 21.0 °F - 8.1 °F 57% 30.45 in 10.0 mi Calm Calm - N/A   Clear
9:52 AM 25.0 °F - 10.0 °F 53% 30.46 in 10.0 mi Calm Calm - N/A   Clear
10:52 AM 28.9 °F - 10.0 °F 45% 30.45 in 10.0 mi Calm Calm - N/A   Partly Cloudy
11:52 AM 34.0 °F 29.8 °F 9.0 °F 35% 30.41 in 10.0 mi ESE 4.6 mph - N/A   Overcast
12:52 PM 41.0 °F 39.0 °F 8.1 °F 26% 30.35 in 10.0 mi Variable 3.5 mph - N/A   Clear
1:52 PM 39.9 °F 35.1 °F 6.1 °F 25% 30.34 in 10.0 mi ESE 6.9 mph - N/A   Clear
2:52 PM 39.9 °F 36.7 °F 6.1 °F 25% 30.33 in 10.0 mi SE 4.6 mph - N/A   Overcast
3:52 PM 37.9 °F 33.5 °F 6.1 °F 27% 30.32 in 10.0 mi SE 5.8 mph - N/A   Mostly Cloudy
4:52 PM 37.0 °F - 6.1 °F 28% 30.34 in 10.0 mi Calm Calm - N/A   Partly Cloudy
5:52 PM 37.0 °F 34.5 °F 5.0 °F 26% 30.33 in 10.0 mi SSE 3.5 mph - N/A   Mostly Cloudy
6:52 PM 37.0 °F - 3.9 °F 25% 30.33 in 10.0 mi Calm Calm - N/A   Overcast
7:52 PM 39.0 °F 36.8 °F 7.0 °F 27% 30.32 in 10.0 mi WSW 3.5 mph - N/A   Overcast
8:52 PM 37.9 °F 33.5 °F 16.0 °F 41% 30.32 in 10.0 mi West 5.8 mph - N/A   Overcast
9:52 PM 37.9 °F - 16.0 °F 41% 30.30 in 10.0 mi Calm Calm - N/A   Overcast
10:52 PM 37.9 °F 35.5 °F 18.0 °F 45% 30.29 in 10.0 mi WSW 3.5 mph - N/A   Overcast
11:52 PM 34.0 °F 28.8 °F 21.9 °F 61% 30.26 in 9.0 mi Variable 5.8 mph - 0.00 in Snow Light Snow